Simultaneous Nadir Overpasses (SNOs) Predictions

Prediction of SNOs between TERRA and METOP-C Satellite Orbit:

Table of predicted SNOs for the next 14.0 days since TLE Epoch: 3/9/2024
Index Date (TERRA) Time (TERRA) Lat,Lon (TERRA) SZA (TERRA ) Date (METOP-C) Time (METOP-C) Lat,Lon (METOP-C) SZA (METOP-C ) Distance(km) Time Diff (sec)
1 03/09/2024 15:59:12 -79.50, 137.87 96.08 03/09/2024 15:58:46 -79.49, 137.74 96.10 2.86 26
2 03/09/2024 16:48:28 79.68, -53.27 84.14 03/09/2024 16:49:20 79.67, -53.42 84.14 3.07 52
3 03/12/2024 07:19:44 79.54, 87.97 82.95 03/12/2024 07:19:40 79.54, 87.97 82.96 0.32 4
4 03/12/2024 08:08:28 -80.85, -92.94 95.14 03/12/2024 08:09:42 -80.66, -92.42 95.25 23.30 74
5 03/14/2024 21:51:01 79.38,-130.91 81.73 03/14/2024 21:50:02 79.38,-130.94 81.72 0.81 59
6 03/14/2024 22:40:18 -79.59, 38.14 98.02 03/14/2024 22:40:38 -79.59, 38.06 98.02 1.93 20
7 03/17/2024 13:11:35 -79.41, 179.10 99.27 03/17/2024 13:11:00 -79.42, 179.11 99.27 0.34 35
8 03/17/2024 14:00:50 79.63, -11.78 81.00 03/17/2024 14:01:33 79.63, -11.83 81.01 1.10 43
9 03/20/2024 04:32:07 79.43, 129.03 79.72 03/20/2024 04:31:56 79.42, 128.88 79.70 3.24 11
10 03/20/2024 05:21:22 -79.71, -61.41 99.93 03/20/2024 05:22:29 -79.72, -61.27 99.90 2.82 67
11 03/22/2024 19:03:23 79.24, -90.01 78.46 03/22/2024 19:02:18 79.23, -90.13 78.43 2.75 65



Historial Predications of SNOs between TERRA and METOP-C
